EW0132 Weather Reports


Display with metric or nautical units.
time (UTC)temp
F
wind
direction
speed
MPH
gust
MPH
rain 1hr
in
rain 24hr
in
rain mn
in
humidity
%
barometer
mb
20190418211436 75 141 3.0 13.0 0.00 0.00 0.00 45 1005.5
20190418210933 75 131 3.0 15.0 0.00 0.00 0.00 47 1005.6
20190418210429 76 154 4.0 15.0 0.00 0.00 0.00 43 1005.7
20190418205924 77 213 2.0 10.0 0.00 0.00 0.00 43 1005.8
20190418205423 77 175 2.0 11.0 0.00 0.00 0.00 37 1005.8
20190418204916 77 175 3.0 11.0 0.00 0.00 0.00 33 1006.0
20190418204412 77 215 2.0 9.0 0.00 0.00 0.00 36 1006.0
20190418203907 77 164 1.0 7.0 0.00 0.00 0.00 34 1006.0
20190418203353 77 146 2.0 10.0 0.00 0.00 0.00 33 1006.0
20190418202902 77 246 2.0 10.0 0.00 0.00 0.00 35 1005.9
20190418202401 77 222 2.0 9.0 0.00 0.00 0.00 33 1005.9
20190418201842 76 147 2.0 9.0 0.00 0.00 0.00 36 1006.4
20190418201342 76 212 2.0 8.0 0.00 0.00 0.00 34 1006.2
20190418200838 75 177 3.0 9.0 0.00 0.00 0.00 36 1006.1
20190418200338 75 227 3.0 9.0 0.00 0.00 0.00 37 1006.6
20190418195833 75 259 3.0 12.0 0.00 0.00 0.00 35 1006.6
20190418195332 75 202 3.0 12.0 0.00 0.00 0.00 40 1006.6
20190418194831 75 255 3.0 12.0 0.00 0.00 0.00 38 1007.1
20190418194328 75 228 5.0 13.0 0.00 0.00 0.00 35 1007.0
20190418193819 74 248 6.0 14.0 0.00 0.00 0.00 36 1006.9
20190418193319 74 266 4.0 14.0 0.00 0.00 0.00 34 1007.4
20190418192819 74 257 4.0 19.0 0.00 0.00 0.00 32 1007.4
20190418192316 74 186 4.0 19.0 0.00 0.00 0.00 37 1007.4
20190418191816 74 148 7.0 16.0 0.00 0.00 0.00 36 1007.3
20190418191315 73 207 8.0 16.0 0.00 0.00 0.00 31 1007.3
20190418190812 74 232 5.0 16.0 0.00 0.00 0.00 31 1007.3
20190418190311 73 196 4.0 14.0 0.00 0.00 0.00 36 1007.7
20190418185810 74 192 3.0 11.0 0.00 0.00 0.00 39 1007.8
20190418185310 73 249 3.0 9.0 0.00 0.00 0.00 38 1007.7
20190418184805 73 176 1.0 9.0 0.00 0.00 0.00 45 1008.5
20190418184304 72 241 2.0 9.0 0.00 0.00 0.00 42 1008.3
20190418183753 71 211 2.0 7.0 0.00 0.00 0.00 43 1008.2
20190418183231 71 246 4.0 11.0 0.00 0.00 0.00 41 1008.6
20190418182727 71 204 7.0 15.0 0.00 0.00 0.00 40 1008.5
20190418182225 71 253 7.0 15.0 0.00 0.00 0.00 40 1008.5
20190418181721 71 261 6.0 11.0 0.00 0.00 0.00 42 1008.6
20190418181220 71 245 7.0 15.0 0.00 0.00 0.00 41 1008.6
20190418180714 71 238 6.0 15.0 0.00 0.00 0.00 41 1008.6
20190418180211 71 251 5.0 14.0 0.00 0.00 0.00 42 1008.8
20190418175710 71 245 6.0 18.0 0.00 0.00 0.00 41 1008.8
20190418175211 70 267 5.0 18.0 0.00 0.00 0.00 39 1008.7
20190418174708 70 238 4.0 14.0 0.00 0.00 0.00 43 1008.8
20190418174208 70 244 6.0 17.0 0.00 0.00 0.00 42 1008.8
20190418173656 70 242 8.0 17.0 0.00 0.00 0.00 40 1008.8
20190418173155 71 246 10.0 19.0 0.00 0.00 0.00 40 1008.6
20190418172655 71 263 11.0 19.0 0.00 0.00 0.00 39 1008.6
20190418172205 72 250 11.0 18.0 0.00 0.00 0.00 39 1008.7
20190418171700 72 204 12.0 28.0 0.00 0.00 0.00 40 1009.3
20190418171147 71 232 12.0 28.0 0.00 0.00 0.00 39 1009.1
20190418170656 71 272 10.0 28.0 0.00 0.00 0.00 39 1009.1
20190418170142 71 284 7.0 25.0 0.00 0.00 0.00 40 1008.9
20190418165640 73 196 4.0 25.0 0.00 0.00 0.00 37 1009.1
20190418165141 74 231 5.0 15.0 0.00 0.00 0.00 44 1009.2
20190418164636 73 265 6.0 16.0 0.00 0.00 0.00 43 1009.1
20190418164132 73 240 5.0 16.0 0.00 0.00 0.00 41 1009.1
20190418163628 73 152 5.0 16.0 0.00 0.00 0.00 41 1009.0
20190418163125 73 242 5.0 13.0 0.00 0.00 0.00 43 1009.3
20190418162623 73 139 5.0 14.0 0.00 0.00 0.00 40 1009.3
20190418162125 72 179 4.0 14.0 0.00 0.00 0.00 50 1009.3
20190418161627 72 245 5.0 16.0 0.00 0.00 0.00 46 1009.6
20190418161121 71 236 7.0 16.0 0.00 0.00 0.00 46 1009.4
20190418160616 71 226 6.0 15.0 0.00 0.00 0.00 44 1009.3
20190418160114 71 232 4.0 10.0 0.00 0.00 0.00 51 1009.7
20190418155610 71 240 3.0 10.0 0.00 0.00 0.00 48 1009.6
20190418155109 70 227 4.0 13.0 0.00 0.00 0.00 52 1009.7
20190418154600 69 196 3.0 13.0 0.00 0.00 0.00 53 1009.6
20190418154100 69 160 2.0 8.0 0.00 0.00 0.00 53 1009.6
20190418153556 69 161 1.0 8.0 0.00 0.00 0.00 55 1010.2
20190418153048 67 163 2.0 7.0 0.00 0.00 0.00 56 1010.1
20190418152545 67 161 3.0 9.0 0.00 0.00 0.00 57 1010.0
20190418152050 66 247 2.0 9.0 0.00 0.00 0.00 57 1009.9
20190418151539 65 191 2.0 5.0 0.00 0.00 0.00 58 1009.8
20190418151038 65 227 1.0 5.0 0.00 0.00 0.00 62 1009.7
20190418150539 64 138 0.0 2.0 0.00 0.00 0.00 62 1009.8
20190418150019 63 138 0.0 3.0 0.00 0.00 0.00 64 1009.7
20190418145510 62 138 0.0 2.0 0.00 0.00 0.00 68 1009.6
20190418144959 61 138 1.0 4.0 0.00 0.00 0.00 67 1009.4
20190418144459 60 150 2.0 5.0 0.00 0.00 0.00 65 1009.3
20190418143941 60 110 2.0 5.0 0.00 0.00 0.00 68 1009.3
20190418143435 60 107 1.0 4.0 0.00 0.00 0.00 69 1009.8
20190418142936 59 132 0.0 3.0 0.00 0.00 0.00 69 1009.7
20190418142430 58 236 0.0 4.0 0.00 0.00 0.00 71 1009.4
20190418141927 58 236 0.0 4.0 0.00 0.00 0.00 70 1009.6
20190418141412 57 238 1.0 3.0 0.00 0.00 0.00 72 1009.6
20190418140907 57 186 0.0 4.0 0.00 0.00 0.00 72 1009.4
20190418140402 57 164 0.0 3.0 0.00 0.00 0.00 73 1009.9
20190418135852 56 186 0.0 0.0 0.00 0.00 0.00 74 1009.8
20190418135330 56 186 0.0 0.0 0.00 0.00 0.00 74 1009.8
20190418134825 55 186 0.0 3.0 0.00 0.00 0.00 74 1009.9
20190418134324 55 186 1.0 5.0 0.00 0.00 0.00 75 1009.8
20190418133802 55 147 1.0 5.0 0.00 0.00 0.00 75 1009.8
20190418133246 54 244 0.0 2.0 0.00 0.00 0.00 76 1009.9
20190418132722 53 244 0.0 2.0 0.00 0.00 0.00 76 1009.8
20190418132203 53 215 0.0 0.0 0.00 0.00 0.00 76 1009.8
20190418131623 53 130 0.0 0.0 0.00 0.00 0.00 76 1009.4
20190418131114 53 126 0.0 3.0 0.00 0.00 0.00 76 1009.4
20190418130610 52 126 0.0 3.0 0.00 0.00 0.00 76 1009.3
20190418130106 52 126 0.0 2.0 0.00 0.00 0.00 76 1009.6
20190418125543 51 132 0.0 3.0 0.00 0.00 0.00 76 1009.6
20190418125036 51 135 1.0 3.0 0.00 0.00 0.00 76 1009.7
20190418124528 51 169 1.0 4.0 0.00 0.00 0.00 76 1009.7
20190418124021 50 169 1.0 4.0 0.00 0.00 0.00 76 1009.6
20190418123509 50 232 0.0 0.0 0.00 0.00 0.00 76 1009.7
20190418122939 50 252 0.0 0.0 0.00 0.00 0.00 77 1009.6
20190418122426 50 257 0.0 0.0 0.00 0.00 0.00 76 1009.6
20190418121928 50 257 0.0 0.0 0.00 0.00 0.00 76 1009.7
20190418121427 49 257 0.0 0.0 0.00 0.00 0.00 76 1009.6
20190418120918 49 257 0.0 0.0 0.00 0.00 0.00 76 1009.6
20190418120407 49 257 0.0 1.0 0.00 0.00 0.00 76 1009.3
20190418115856 48 257 1.0 3.0 0.00 0.00 0.00 76 1009.3
20190418115347 48 257 0.0 3.0 0.00 0.00 0.00 75 1009.3
20190418114833 48 150 0.0 0.0 0.00 0.00 0.00 75 1009.1
20190418114324 48 150 0.0 0.0 0.00 0.00 0.00 76 1009.1
20190418113803 48 150 0.0 0.0 0.00 0.00 0.00 76 1009.0
20190418113238 48 150 0.0 0.0 0.00 0.00 0.00 75 1008.7
20190418112713 48 150 0.0 0.0 0.00 0.00 0.00 75 1008.7
20190418112147 47 150 0.0 0.0 0.00 0.00 0.00 75 1008.7
20190418111620 47 150 0.0 0.0 0.00 0.00 0.00 75 1008.8
20190418111121 47 150 0.0 0.0 0.00 0.00 0.00 75 1008.8
20190418110611 47 150 0.0 0.0 0.00 0.00 0.00 74 1008.8
20190418110107 47 150 0.0 0.0 0.00 0.00 0.00 74 1008.7
20190418105600 47 150 0.0 0.0 0.00 0.00 0.00 75 1008.7
20190418105020 47 150 0.0 0.0 0.00 0.00 0.00 74 1008.8
20190418104508 47 150 0.0 0.0 0.00 0.00 0.00 74 1008.8
20190418104009 47 150 0.0 0.0 0.00 0.00 0.00 74 1008.8
20190418103503 47 150 0.0 0.0 0.00 0.00 0.00 74 1008.6
20190418102951 47 150 0.0 4.0 0.00 0.00 0.00 75 1008.6
20190418102452 47 150 0.0 4.0 0.00 0.00 0.00 75 1008.6
20190418101950 48 104 0.0 0.0 0.00 0.00 0.00 75 1008.3
20190418101423 48 107 0.0 0.0 0.00 0.00 0.00 75 1008.3
20190418100912 48 107 0.0 0.0 0.00 0.00 0.00 75 1008.3
20190418100354 48 107 0.0 0.0 0.00 0.00 0.00 75 1008.5
20190418095850 49 107 0.0 0.0 0.00 0.00 0.00 76 1008.5
20190418095330 49 107 0.0 2.0 0.00 0.00 0.00 76 1008.5
20190418094811 49 107 0.0 0.0 0.00 0.00 0.00 76 1008.8
20190418094312 49 107 0.0 0.0 0.00 0.00 0.00 76 1008.8
20190418093807 49 107 1.0 3.0 0.00 0.00 0.00 76 1008.8
20190418093303 49 107 2.0 5.0 0.00 0.00 0.00 76 1008.8
20190418092802 49 107 1.0 5.0 0.00 0.00 0.00 76 1008.7
20190418092305 49 104 0.0 0.0 0.00 0.00 0.00 75 1008.7
20190418091759 49 104 0.0 0.0 0.00 0.00 0.00 74 1008.7
20190418091248 49 125 1.0 3.0 0.00 0.00 0.00 75 1008.7
20190418090728 49 125 1.0 5.0 0.00 0.00 0.00 75 1008.7
20190418090226 49 94 0.0 3.0 0.00 0.00 0.00 75 1008.6
20190418085726 49 94 0.0 0.0 0.00 0.00 0.00 75 1008.6
20190418085210 48 94 0.0 0.0 0.00 0.00 0.00 75 1008.6
20190418084655 49 94 0.0 0.0 0.00 0.00 0.00 74 1008.3
20190418084141 49 94 0.0 0.0 0.00 0.00 0.00 75 1008.4
20190418083613 49 94 0.0 0.0 0.00 0.00 0.00 75 1008.4
20190418083106 49 153 0.0 1.0 0.00 0.00 0.00 76 1008.6
20190418082554 49 134 0.0 1.0 0.00 0.00 0.00 76 1008.6
20190418082031 49 112 0.0 0.0 0.00 0.00 0.00 76 1008.3
20190418081518 49 112 0.0 0.0 0.00 0.00 0.00 76 1008.3
20190418081002 49 112 0.0 0.0 0.00 0.00 0.00 76 1008.3
20190418080446 49 112 0.0 0.0 0.00 0.00 0.00 76 1008.6
20190418075938 49 112 0.0 2.0 0.00 0.00 0.00 76 1008.6
20190418075406 49 112 1.0 4.0 0.00 0.00 0.00 76 1008.7
20190418074905 49 112 1.0 4.0 0.00 0.00 0.00 76 1008.8
20190418074358 49 112 1.0 3.0 0.00 0.00 0.00 76 1008.8
20190418073848 49 112 1.0 3.0 0.00 0.00 0.00 76 1008.8
20190418073601 49 112 2.0 5.0 0.00 0.00 0.00 76 1008.9
20190418073330 49 112 2.0 5.0 0.00 0.00 0.00 76 1008.9
20190418072812 49 112 2.0 5.0 0.00 0.00 0.00 76 1008.9
20190418072312 49 109 2.0 4.0 0.00 0.00 0.00 76 1008.9
20190418071808 49 109 1.0 5.0 0.00 0.00 0.00 76 1009.4
20190418071308 49 101 1.0 5.0 0.00 0.00 0.00 76 1009.4
20190418070802 49 99 1.0 3.0 0.00 0.00 0.00 76 1009.4
20190418070255 49 99 2.0 5.0 0.00 0.00 0.00 76 1009.4
20190418065752 49 99 2.0 5.0 0.00 0.00 0.00 76 1009.4
20190418065241 50 103 2.0 4.0 0.00 0.00 0.00 76 1009.4
20190418064741 50 101 2.0 4.0 0.00 0.00 0.00 76 1009.7
20190418064239 49 99 2.0 4.0 0.00 0.00 0.00 76 1009.6
20190418063733 49 99 1.0 4.0 0.00 0.00 0.00 76 1009.6
20190418063232 49 111 0.0 0.0 0.00 0.00 0.00 76 1009.8
20190418062728 50 123 0.0 2.0 0.00 0.00 0.00 76 1009.9
20190418062226 50 123 0.0 3.0 0.00 0.00 0.00 76 1009.9
20190418061641 51 123 0.0 3.0 0.00 0.00 0.00 76 1010.2
20190418061129 51 95 0.0 2.0 0.00 0.00 0.00 75 1010.2
20190418060629 51 95 1.0 4.0 0.00 0.00 0.00 75 1010.2
20190418060108 51 95 1.0 4.0 0.00 0.00 0.00 76 1010.3
20190418055604 51 148 0.0 4.0 0.00 0.00 0.00 75 1010.3
20190418055106 51 161 0.0 0.0 0.00 0.00 0.00 75 1010.5
20190418054533 51 161 0.0 0.0 0.00 0.00 0.00 75 1010.5
20190418054028 51 161 0.0 0.0 0.00 0.00 0.00 75 1010.5
20190418053524 51 161 0.0 0.0 0.00 0.00 0.00 75 1010.6
20190418053005 51 161 0.0 0.0 0.00 0.00 0.00 75 1010.6
20190418052436 51 161 0.0 0.0 0.00 0.00 0.00 75 1010.6
20190418051907 51 161 0.0 0.0 0.00 0.00 0.00 75 1010.5
20190418051402 51 161 0.0 0.0 0.00 0.00 0.00 75 1010.5
20190418050853 51 161 0.0 0.0 0.00 0.00 0.00 75 1010.5
20190418050329 51 161 0.0 1.0 0.00 0.00 0.00 75 1010.6
20190418045807 52 161 0.0 1.0 0.00 0.00 0.00 75 1010.6
20190418045254 52 161 0.0 1.0 0.00 0.00 0.00 75 1010.7
20190418044742 52 161 0.0 4.0 0.00 0.00 0.00 75 1010.7
20190418044240 52 161 1.0 4.0 0.00 0.00 0.00 75 1010.7
20190418043728 52 153 1.0 6.0 0.00 0.00 0.00 75 1010.7
20190418043227 52 148 1.0 6.0 0.00 0.00 0.00 75 1010.7
20190418042724 52 149 1.0 6.0 0.00 0.00 0.00 75 1010.7
20190418042220 53 142 1.0 4.0 0.00 0.00 0.00 74 1010.8
20190418041720 53 129 1.0 5.0 0.00 0.00 0.00 74 1011.0
20190418041215 53 129 1.0 5.0 0.00 0.00 0.00 74 1011.0
20190418040714 53 166 0.0 2.0 0.00 0.00 0.00 74 1011.0
20190418040159 53 184 0.0 2.0 0.00 0.00 0.00 74 1011.4
20190418035655 53 183 0.0 0.0 0.00 0.00 0.00 74 1011.4
20190418035132 53 183 0.0 0.0 0.00 0.00 0.00 74 1011.4
20190418034628 53 183 1.0 6.0 0.00 0.00 0.00 74 1011.0
20190418034127 53 183 1.0 6.0 0.00 0.00 0.00 74 1011.0
20190418033603 53 131 0.0 0.0 0.00 0.00 0.00 74 1011.0
20190418033057 53 133 0.0 3.0 0.00 0.00 0.00 74 1011.0
20190418032555 53 136 1.0 4.0 0.00 0.00 0.00 74 1011.0
20190418032050 53 121 1.0 5.0 0.00 0.00 0.00 73 1011.4
20190418031531 54 141 0.0 4.0 0.00 0.00 0.00 72 1011.5
20190418031027 54 293 0.0 3.0 0.00 0.00 0.00 72 1011.5
20190418030520 54 68 0.0 0.0 0.00 0.00 0.00 71 1011.6
20190418030003 55 68 0.0 2.0 0.00 0.00 0.00 71 1011.7
20190418025449 55 80 0.0 2.0 0.00 0.00 0.00 71 1011.7
20190418024940 55 80 0.0 0.0 0.00 0.00 0.00 70 1011.6
20190418024440 55 80 0.0 0.0 0.00 0.00 0.00 70 1011.6
20190418023912 55 80 0.0 0.0 0.00 0.00 0.00 70 1011.6
20190418023402 56 80 0.0 0.0 0.00 0.00 0.00 69 1011.4
20190418022842 56 80 0.0 0.0 0.00 0.00 0.00 69 1011.4
20190418022306 56 80 0.0 0.0 0.00 0.00 0.00 69 1011.4
20190418021753 56 80 0.0 0.0 0.00 0.00 0.00 69 1011.4
20190418021221 56 80 0.0 0.0 0.00 0.00 0.00 69 1011.5
20190418020714 56 80 0.0 0.0 0.00 0.00 0.00 69 1011.5
20190418020133 56 74 0.0 0.0 0.00 0.00 0.00 68 1011.2
20190418015628 56 74 0.0 0.0 0.00 0.00 0.00 68 1011.2
20190418015113 56 74 0.0 0.0 0.00 0.00 0.00 68 1011.3
20190418014611 57 74 0.0 0.0 0.00 0.00 0.00 67 1011.0
20190418014103 57 74 0.0 3.0 0.00 0.00 0.00 67 1011.0
20190418013558 57 74 0.0 3.0 0.00 0.00 0.00 67 1011.2
20190418013058 57 74 0.0 2.0 0.00 0.00 0.00 66 1011.2
20190418012529 58 79 0.0 2.0 0.00 0.00 0.00 66 1011.2
20190418012025 58 79 0.0 4.0 0.00 0.00 0.00 65 1011.3
20190418011450 58 78 0.0 4.0 0.00 0.00 0.00 64 1011.4
20190418010941 59 78 0.0 0.0 0.00 0.00 0.00 64 1011.4
20190418010422 59 91 0.0 0.0 0.00 0.00 0.00 63 1011.7
20190418005901 59 91 0.0 0.0 0.00 0.00 0.00 63 1011.7
20190418005359 59 91 0.0 1.0 0.00 0.00 0.00 62 1011.7
20190418004852 60 91 0.0 1.0 0.00 0.00 0.00 62 1011.5
20190418004341 60 91 0.0 2.0 0.00 0.00 0.00 62 1011.5
20190418003828 60 91 1.0 3.0 0.00 0.00 0.00 62 1011.6
20190418003322 60 91 2.0 5.0 0.00 0.00 0.00 62 1011.6
20190418002755 61 91 2.0 6.0 0.00 0.00 0.00 61 1011.7
20190418002248 61 93 0.0 6.0 0.00 0.00 0.00 60 1011.7
20190418001741 61 153 0.0 0.0 0.00 0.00 0.00 60 1012.3
20190418000713 62 153 0.0 0.0 0.00 0.00 0.00 59 1012.4
20190418000159 62 153 0.0 3.0 0.00 0.00 0.00 58 1012.1
20190417235649 62 153 0.0 3.0 0.00 0.00 0.00 58 1012.1
20190417235142 63 171 0.0 0.0 0.00 0.00 0.00 57 1012.1
20190417234645 63 171 0.0 5.0 0.00 0.00 0.00 57 1012.1
20190417234140 63 171 1.0 6.0 0.00 0.00 0.00 57 1012.1
20190417233632 63 99 1.0 6.0 0.00 0.00 0.00 56 1012.1
20190417233131 64 103 1.0 5.0 0.00 0.00 0.00 57 1012.1
20190417232630 64 74 0.0 4.0 0.00 0.00 0.00 55 1012.1
20190417232127 64 128 1.0 3.0 0.00 0.00 0.00 55 1012.1
20190417231616 64 115 1.0 4.0 0.00 0.00 0.00 55 1012.2
20190417231116 64 120 1.0 7.0 0.00 0.00 0.00 55 1012.3
20190417230611 64 109 2.0 7.0 0.00 0.00 0.00 54 1011.8
20190417230111 65 135 3.0 12.0 0.00 0.00 0.00 55 1011.9
20190417225600 65 117 5.0 12.0 0.00 0.00 0.00 53 1011.9
20190417225059 66 96 3.0 12.0 0.00 0.00 0.00 52 1012.0
20190417224602 69 105 0.0 0.0 0.00 0.00 0.00 53 1012.3
20190417224105 69 215 0.0 0.0 0.00 0.00 0.00 49 1012.3
20190417223524 69 215 0.0 4.0 0.00 0.00 0.00 48 1012.4
20190417223013 69 215 1.0 6.0 0.00 0.00 0.00 49 1012.4
20190417222513 69 242 1.0 6.0 0.00 0.00 0.00 49 1012.4
20190417222012 69 217 1.0 5.0 0.00 0.00 0.00 48 1012.0
20190417221445 69 245 1.0 8.0 0.00 0.00 0.00 48 1012.0
20190417220938 69 207 1.0 8.0 0.00 0.00 0.00 48 1012.0
20190417220438 69 140 1.0 6.0 0.00 0.00 0.00 50 1012.0
20190417215908 69 150 1.0 9.0 0.00 0.00 0.00 50 1012.0
20190417215406 69 189 2.0 9.0 0.00 0.00 0.00 46 1012.0
20190417214903 70 144 1.0 8.0 0.00 0.00 0.00 47 1012.0
20190417214402 70 240 1.0 9.0 0.00 0.00 0.00 50 1012.0
20190417213847 70 242 1.0 9.0 0.00 0.00 0.00 47 1012.0
20190417213344 70 141 1.0 5.0 0.00 0.00 0.00 46 1012.0
20190417212839 70 141 2.0 8.0 0.00 0.00 0.00 49 1012.1
20190417212326 70 136 4.0 14.0 0.00 0.00 0.00 46 1012.1
20190417211821 70 222 4.0 14.0 0.00 0.00 0.00 48 1011.8